Location: Hackberry
(29.5783°N, 96.8797°W)
Time: 00:45:48
(UTC+00:00)

Courier 1B - Pass Details

Date: 18 November 2024
Orbit: 962 x 1208 km, 28.3° (Epoch: 03 December)

Event Time Altitude Azimuth Distance (km) Brightness Sun altitude
Rises 00:46:26 0° 271° (W) 3,633 12.0 -16.5°
Reaches altitude 10° 00:49:33 10° 258° (WSW) 2,686 11.1 -17.1°
Maximum altitude 00:54:35 24° 207° (SSW) 1,881 9.4 -18.2°
Drops below altitude 10° 00:59:43 10° 155° (SSE) 2,738 9.7 -19.3°
Enters shadow 01:02:52 - 142° (SE) 3,694 10.3 -20.0°
